• In Belgium
  • List of Countries
  • For 7 days
  • Water Temperature
  • Satellite Maps
  • Weather Map
  • Weather Widgets
  • user-avatar
    Login

    Hourly Weather Pamplona

    Today, 22 June, Friday

    Time Temperature Precipitation Wind Pressure Humidity
    00:00 +19°C° 0 mm 3 mps 722 mmHg 93%
    01:00 +19°C° 0 mm 3 mps 722 mmHg 93%
    02:00 +18°C° 0 mm 2 mps 722 mmHg 93%
    03:00 +18°C° 0 mm 2 mps 722 mmHg 94%
    04:00 +18°C° 0 mm 2 mps 722 mmHg 93%
    05:00 +19°C° 0 mm 2 mps 722 mmHg 91%
    06:00 +19°C° 0 mm 2 mps 722 mmHg 90%
    07:00 +20°C° 0 mm 2 mps 722 mmHg 86%
    08:00 +21°C° 0 mm 3 mps 722 mmHg 82%
    09:00 +22°C° 0 mm 3 mps 723 mmHg 79%
    10:00 +24°C° 0 mm 3 mps 723 mmHg 77%
    11:00 +24°C° 0 mm 3 mps 723 mmHg 75%
    12:00 +25°C° 0 mm 4 mps 723 mmHg 73%
    13:00 +25°C° 0 mm 4 mps 722 mmHg 69%
    14:00 +26°C° 0 mm 4 mps 722 mmHg 65%
    15:00 +27°C° 0 mm 4 mps 722 mmHg 61%
    16:00 +26°C° 0 mm 4 mps 722 mmHg 63%
    17:00 +25°C° 0 mm 4 mps 722 mmHg 66%
    18:00 +23°C° 0 mm 4 mps 722 mmHg 69%
    19:00 +21°C° 0 mm 3 mps 722 mmHg 76%
    20:00 +19°C° 0 mm 3 mps 722 mmHg 83%
    21:00 +17°C° 0 mm 2 mps 722 mmHg 90%
    22:00 +17°C° 0 mm 2 mps 722 mmHg 91%
    23:00 +16°C° 0 mm 2 mps 722 mmHg 91%

    Tomorrow, 23 June, Saturday

    Time Temperature Precipitation Wind Pressure Humidity
    00:00 +15°C° 0 mm 2 mps 722 mmHg 91%
    01:00 +15°C° 0 mm 1 mps 722 mmHg 91%
    02:00 +15°C° 0 mm 1 mps 722 mmHg 91%
    03:00 +14°C° 0 mm 1 mps 722 mmHg 91%
    04:00 +15°C° 0 mm 1 mps 722 mmHg 89%
    05:00 +15°C° 0 mm 1 mps 722 mmHg 87%
    06:00 +16°C° 0 mm 1 mps 722 mmHg 85%
    07:00 +19°C° 0 mm 1 mps 722 mmHg 74%
    08:00 +22°C° 0 mm 1 mps 722 mmHg 63%
    09:00 +24°C° 0 mm 2 mps 723 mmHg 52%
    10:00 +26°C° 0 mm 2 mps 723 mmHg 48%
    11:00 +27°C° 0 mm 2 mps 722 mmHg 44%
    12:00 +28°C° 0 mm 2 mps 722 mmHg 39%
    13:00 +29°C° 0 mm 2 mps 722 mmHg 39%
    14:00 +29°C° 0 mm 3 mps 722 mmHg 40%
    15:00 +29°C° 0 mm 3 mps 722 mmHg 40%
    16:00 +28°C° 0 mm 3 mps 721 mmHg 46%
    17:00 +27°C° 0 mm 3 mps 721 mmHg 51%
    18:00 +26°C° 0 mm 3 mps 721 mmHg 57%
    19:00 +24°C° 0 mm 2 mps 721 mmHg 66%
    20:00 +20°C° 0 mm 2 mps 721 mmHg 75%
    21:00 +19°C° 0 mm 1 mps 721 mmHg 84%
    22:00 +18°C° 0 mm 1 mps 721 mmHg 84%
    23:00 +18°C° 0 mm 1 mps 721 mmHg 84%

    Day after tomorrow, 24 June, Sunday

    Time Temperature Precipitation Wind Pressure Humidity
    00:00 +16°C° 0 mm 1 mps 721 mmHg 84%
    01:00 +16°C° 0 mm 1 mps 720 mmHg 82%
    02:00 +16°C° 0 mm 1 mps 720 mmHg 80%
    03:00 +16°C° 0 mm 1 mps 720 mmHg 78%
    04:00 +16°C° 0 mm 1 mps 720 mmHg 76%
    05:00 +18°C° 0 mm 1 mps 720 mmHg 75%
    06:00 +19°C° 0 mm 1 mps 720 mmHg 74%
    07:00 +22°C° 0 mm 1 mps 721 mmHg 66%
    08:00 +24°C° 0 mm 1 mps 721 mmHg 58%
    09:00 +27°C° 0 mm 1 mps 721 mmHg 51%
    10:00 +28°C° 0 mm 1 mps 721 mmHg 45%
    11:00 +29°C° 0 mm 2 mps 721 mmHg 39%
    12:00 +31°C° 0 mm 2 mps 721 mmHg 33%
    13:00 +31°C° 0 mm 3 mps 721 mmHg 33%
    14:00 +31°C° 0 mm 3 mps 720 mmHg 33%
    15:00 +33°C° 0 mm 3 mps 720 mmHg 33%
    16:00 +30°C° 0 mm 3 mps 720 mmHg 39%
    17:00 +29°C° 0 mm 3 mps 719 mmHg 45%
    18:00 +27°C° 0 mm 3 mps 719 mmHg 51%
    19:00 +25°C° 0 mm 2 mps 719 mmHg 60%
    20:00 +21°C° 0 mm 2 mps 719 mmHg 69%
    21:00 +19°C° 0 mm 2 mps 719 mmHg 78%
    22:00 +19°C° 0 mm 1 mps 719 mmHg 76%
    23:00 +18°C° 0 mm 1 mps 719 mmHg 74%

    25 June, Monday

    Time Temperature Precipitation Wind Pressure Humidity
    00:00 +18°C° 0 mm 1 mps 719 mmHg 71%
    01:00 +18°C° 0 mm 1 mps 719 mmHg 69%
    02:00 +16°C° 0 mm 1 mps 719 mmHg 67%
    03:00 +16°C° 0 mm 1 mps 719 mmHg 66%
    04:00 +18°C° 0 mm 1 mps 719 mmHg 65%
    05:00 +19°C° 0 mm 1 mps 719 mmHg 64%
    06:00 +20°C° 0 mm 1 mps 719 mmHg 63%
    07:00 +22°C° 0 mm 1 mps 719 mmHg 59%
    08:00 +25°C° 0 mm 1 mps 720 mmHg 54%
    09:00 +27°C° 0 mm 1 mps 720 mmHg 49%
    10:00 +29°C° 0 mm 1 mps 720 mmHg 46%
    11:00 +31°C° 0 mm 1 mps 720 mmHg 43%
    12:00 +32°C° 0 mm 1 mps 720 mmHg 40%
    13:00 +34°C° 0 mm 2 mps 720 mmHg 39%
    14:00 +34°C° 0 mm 2 mps 719 mmHg 38%
    15:00 +34°C° 0 mm 2 mps 719 mmHg 37%
    16:00 +32°C° 0 mm 2 mps 719 mmHg 43%
    17:00 +31°C° 0 mm 2 mps 719 mmHg 48%
    18:00 +30°C° 0 mm 1 mps 719 mmHg 54%
    19:00 +28°C° 0.1 mm 1 mps 719 mmHg 62%
    20:00 +26°C° 0.1 mm 1 mps 719 mmHg 69%
    21:00 +24°C° 0.1 mm 1 mps 719 mmHg 77%
    22:00 +23°C° 0.1 mm 1 mps 719 mmHg 79%
    23:00 +23°C° 0.1 mm 2 mps 719 mmHg 81%

    26 June, Tuesday

    Time Temperature Precipitation Wind Pressure Humidity
    00:00 +21°C° 0.1 mm 2 mps 719 mmHg 82%
    01:00 +21°C° 0.5 mm 2 mps 719 mmHg 84%
    02:00 +21°C° 0.5 mm 1 mps 719 mmHg 87%
    03:00 +21°C° 0.5 mm 1 mps 719 mmHg 89%
    04:00 +21°C° 0.3 mm 1 mps 719 mmHg 88%
    05:00 +21°C° 0.3 mm 1 mps 719 mmHg 87%
    06:00 +22°C° 0.3 mm 1 mps 719 mmHg 86%
    07:00 +24°C° 0 mm 1 mps 719 mmHg 77%
    08:00 +26°C° 0 mm 2 mps 719 mmHg 69%
    09:00 +28°C° 0 mm 2 mps 719 mmHg 60%
    10:00 +29°C° 0.1 mm 2 mps 719 mmHg 56%
    11:00 +31°C° 0.1 mm 2 mps 719 mmHg 52%
    12:00 +32°C° 0.1 mm 2 mps 719 mmHg 48%
    13:00 +32°C° 0.3 mm 2 mps 719 mmHg 48%
    14:00 +32°C° 0.3 mm 2 mps 719 mmHg 48%
    15:00 +32°C° 0.3 mm 2 mps 718 mmHg 48%
    16:00 +31°C° 1 mm 2 mps 718 mmHg 54%
    17:00 +30°C° 1 mm 2 mps 718 mmHg 60%
    18:00 +29°C° 1 mm 2 mps 718 mmHg 66%
    19:00 +27°C° 0.8 mm 2 mps 718 mmHg 72%
    20:00 +25°C° 0.8 mm 2 mps 719 mmHg 78%
    21:00 +23°C° 0.8 mm 2 mps 719 mmHg 84%
    22:00 +23°C° 1.6 mm 2 mps 719 mmHg 87%
    23:00 +22°C° 1.6 mm 1 mps 719 mmHg 89%

    27 June, Wednesday

    Time Temperature Precipitation Wind Pressure Humidity
    00:00 +21°C° 1.6 mm 1 mps 719 mmHg 92%
    01:00 +21°C° 0.9 mm 1 mps 719 mmHg 92%
    02:00 +21°C° 0.9 mm 1 mps 719 mmHg 93%
    03:00 +20°C° 0.9 mm 1 mps 719 mmHg 93%
    04:00 +21°C° 0.2 mm 1 mps 720 mmHg 92%
    05:00 +21°C° 0.2 mm 1 mps 720 mmHg 92%
    06:00 +21°C° 0.2 mm 1 mps 720 mmHg 91%
    07:00 +21°C° 0.1 mm 2 mps 720 mmHg 86%
    08:00 +23°C° 0.1 mm 2 mps 720 mmHg 82%
    09:00 +24°C° 0.1 mm 2 mps 720 mmHg 78%
    10:00 +25°C° 0.1 mm 2 mps 720 mmHg 73%
    11:00 +26°C° 0.1 mm 2 mps 720 mmHg 69%
    12:00 +28°C° 0.1 mm 2 mps 720 mmHg 65%
    13:00 +28°C° 0.2 mm 2 mps 720 mmHg 64%
    14:00 +28°C° 0.2 mm 3 mps 720 mmHg 62%
    15:00 +29°C° 0.2 mm 3 mps 720 mmHg 61%
    16:00 +28°C° 0.4 mm 3 mps 720 mmHg 65%
    17:00 +27°C° 0.4 mm 2 mps 720 mmHg 70%
    18:00 +26°C° 0.4 mm 2 mps 720 mmHg 75%
    19:00 +24°C° 2.5 mm 2 mps 720 mmHg 80%
    20:00 +23°C° 2.5 mm 2 mps 720 mmHg 86%
    21:00 +21°C° 2.5 mm 1 mps 721 mmHg 92%
    22:00 +21°C° 0.5 mm 1 mps 721 mmHg 92%
    23:00 +21°C° 0.5 mm 1 mps 720 mmHg 92%
    Show more